When you browse on this site, cookies collect data to enhance your experience and personalize the content and advertising you see.
Visit our Privacy Policy to learn more. By continuing to use the site, you agree to this use of cookies and data.
  • In Österreich
  • Länderverzeichnis
  • Für 7 Tage
  • Wassertemperatur
  • Satellitenkarten
  • Wetterkarte
  • News
  • Widgets
  • user-avatar
    Anmelden

    Stündliche Wetter Debe

    Heute, 11 Dezember, Dienstag

    Zeit Temperatur Niederschläge Wind Luftdruck Luftfeuchtigkeit
    00:00 0°C° 0 mm 5 m/S 745 mmHg 83%
    01:00 0°C° 0 mm 4 m/S 745 mmHg 83%
    02:00 0°C° 0.1 mm 4 m/S 745 mmHg 85%
    03:00 0°C° 0.1 mm 4 m/S 745 mmHg 86%
    04:00 0°C° 0.1 mm 4 m/S 744 mmHg 87%
    05:00 0°C° 0.2 mm 4 m/S 744 mmHg 87%
    06:00 0°C° 0.2 mm 4 m/S 744 mmHg 88%
    07:00 +1°C° 0 mm 3 m/S 744 mmHg 90%
    08:00 +1°C° 0.3 mm 3 m/S 745 mmHg 89%
    09:00 +1°C° 0.3 mm 3 m/S 745 mmHg 88%
    10:00 +2°C° 0.3 mm 3 m/S 745 mmHg 87%
    11:00 +2°C° 0.2 mm 3 m/S 745 mmHg 87%
    12:00 +2°C° 0.2 mm 3 m/S 746 mmHg 87%
    13:00 +3°C° 0.2 mm 2 m/S 746 mmHg 87%
    14:00 +3°C° 0.1 mm 2 m/S 746 mmHg 88%
    15:00 +3°C° 0.1 mm 2 m/S 747 mmHg 89%
    16:00 +3°C° 0.1 mm 2 m/S 747 mmHg 91%
    17:00 +2°C° 0.1 mm 2 m/S 747 mmHg 91%
    18:00 +2°C° 0.1 mm 2 m/S 748 mmHg 92%
    19:00 +2°C° 0.1 mm 2 m/S 748 mmHg 93%
    20:00 +2°C° 0.1 mm 2 m/S 749 mmHg 93%
    21:00 +2°C° 0.1 mm 2 m/S 749 mmHg 93%
    22:00 +2°C° 0.1 mm 2 m/S 750 mmHg 93%
    23:00 +2°C° 0.1 mm 2 m/S 750 mmHg 93%

    Morgen, 12 Dezember, Mittwoch

    Zeit Temperatur Niederschläge Wind Luftdruck Luftfeuchtigkeit
    00:00 +1°C° 0.1 mm 2 m/S 751 mmHg 93%
    01:00 0°C° 0.1 mm 3 m/S 751 mmHg 93%
    02:00 0°C° 0 mm 3 m/S 751 mmHg 92%
    03:00 -1°C° 0 mm 3 m/S 752 mmHg 92%
    04:00 -1°C° 0 mm 3 m/S 752 mmHg 91%
    05:00 -1°C° 0 mm 3 m/S 752 mmHg 91%
    06:00 -2°C° 0 mm 3 m/S 753 mmHg 90%
    07:00 -2°C° 0 mm 3 m/S 753 mmHg 89%
    08:00 -1°C° 0 mm 3 m/S 754 mmHg 87%
    09:00 -1°C° 0 mm 3 m/S 754 mmHg 84%
    10:00 -1°C° 0 mm 3 m/S 755 mmHg 82%
    11:00 0°C° 0 mm 3 m/S 755 mmHg 81%
    12:00 0°C° 0 mm 3 m/S 755 mmHg 79%
    13:00 +1°C° 0 mm 3 m/S 755 mmHg 78%
    14:00 0°C° 0 mm 3 m/S 755 mmHg 82%
    15:00 -1°C° 0 mm 2 m/S 756 mmHg 86%
    16:00 -1°C° 0 mm 2 m/S 756 mmHg 90%
    17:00 -1°C° 0 mm 2 m/S 756 mmHg 91%
    18:00 -1°C° 0 mm 2 m/S 756 mmHg 92%
    19:00 -2°C° 0 mm 2 m/S 756 mmHg 93%
    20:00 -2°C° 0 mm 2 m/S 756 mmHg 93%
    21:00 -2°C° 0 mm 2 m/S 757 mmHg 94%
    22:00 -2°C° 0 mm 2 m/S 757 mmHg 94%
    23:00 -2°C° 0 mm 2 m/S 757 mmHg 94%

    übermorgen, 13 Dezember, Donnerstag

    Zeit Temperatur Niederschläge Wind Luftdruck Luftfeuchtigkeit
    00:00 -2°C° 0 mm 2 m/S 757 mmHg 94%
    01:00 -2°C° 0 mm 2 m/S 757 mmHg 94%
    02:00 -1°C° 0 mm 2 m/S 757 mmHg 94%
    03:00 -1°C° 0 mm 2 m/S 756 mmHg 94%
    04:00 -1°C° 0 mm 2 m/S 756 mmHg 93%
    05:00 -1°C° 0 mm 2 m/S 756 mmHg 93%
    06:00 -1°C° 0 mm 2 m/S 756 mmHg 93%
    07:00 -1°C° 0 mm 3 m/S 756 mmHg 92%
    08:00 -1°C° 0 mm 3 m/S 756 mmHg 91%
    09:00 -1°C° 0 mm 3 m/S 756 mmHg 89%
    10:00 -1°C° 0 mm 3 m/S 756 mmHg 88%
    11:00 -1°C° 0 mm 3 m/S 756 mmHg 86%
    12:00 0°C° 0 mm 3 m/S 756 mmHg 85%
    13:00 0°C° 0 mm 3 m/S 756 mmHg 83%
    14:00 +1°C° 0 mm 2 m/S 756 mmHg 84%
    15:00 -1°C° 0 mm 2 m/S 756 mmHg 86%
    16:00 -1°C° 0 mm 2 m/S 756 mmHg 87%
    17:00 -1°C° 0 mm 2 m/S 756 mmHg 87%
    18:00 -1°C° 0 mm 2 m/S 756 mmHg 87%
    19:00 -1°C° 0 mm 2 m/S 757 mmHg 88%
    20:00 -1°C° 0 mm 2 m/S 757 mmHg 87%
    21:00 -1°C° 0 mm 2 m/S 757 mmHg 87%
    22:00 -1°C° 0 mm 2 m/S 757 mmHg 87%
    23:00 -1°C° 0 mm 2 m/S 757 mmHg 87%

    14 Dezember, Freitag

    Zeit Temperatur Niederschläge Wind Luftdruck Luftfeuchtigkeit
    00:00 -2°C° 0 mm 2 m/S 757 mmHg 88%
    01:00 -2°C° 0 mm 2 m/S 757 mmHg 88%
    02:00 -2°C° 0 mm 2 m/S 757 mmHg 89%
    03:00 -2°C° 0 mm 2 m/S 757 mmHg 91%
    04:00 -3°C° 0 mm 2 m/S 757 mmHg 92%
    05:00 -3°C° 0 mm 2 m/S 757 mmHg 92%
    06:00 -3°C° 0 mm 2 m/S 757 mmHg 92%
    07:00 -3°C° 0 mm 2 m/S 758 mmHg 92%
    08:00 -3°C° 0 mm 2 m/S 758 mmHg 89%
    09:00 -2°C° 0 mm 2 m/S 758 mmHg 86%
    10:00 -2°C° 0 mm 2 m/S 758 mmHg 84%
    11:00 -2°C° 0 mm 2 m/S 758 mmHg 81%
    12:00 -1°C° 0 mm 2 m/S 758 mmHg 79%
    13:00 -1°C° 0 mm 2 m/S 758 mmHg 76%
    14:00 -2°C° 0 mm 2 m/S 758 mmHg 78%
    15:00 -2°C° 0 mm 2 m/S 758 mmHg 81%
    16:00 -2°C° 0 mm 2 m/S 759 mmHg 83%
    17:00 -2°C° 0 mm 2 m/S 759 mmHg 83%
    18:00 -2°C° 0 mm 2 m/S 759 mmHg 84%
    19:00 -2°C° 0 mm 2 m/S 759 mmHg 85%
    20:00 -2°C° 0 mm 2 m/S 759 mmHg 86%
    21:00 -2°C° 0 mm 2 m/S 759 mmHg 87%
    22:00 -2°C° 0 mm 2 m/S 759 mmHg 89%
    23:00 -2°C° 0 mm 2 m/S 759 mmHg 90%

    15 Dezember, Samstag

    Zeit Temperatur Niederschläge Wind Luftdruck Luftfeuchtigkeit
    00:00 -2°C° 0 mm 2 m/S 759 mmHg 91%
    01:00 -2°C° 0 mm 2 m/S 760 mmHg 92%
    02:00 -2°C° 0 mm 2 m/S 760 mmHg 91%
    03:00 -2°C° 0 mm 2 m/S 760 mmHg 90%
    04:00 -2°C° 0 mm 3 m/S 760 mmHg 89%
    05:00 -2°C° 0 mm 2 m/S 760 mmHg 89%
    06:00 -2°C° 0 mm 2 m/S 760 mmHg 88%
    07:00 -2°C° 0 mm 2 m/S 760 mmHg 88%
    08:00 -2°C° 0 mm 2 m/S 761 mmHg 87%
    09:00 -1°C° 0 mm 3 m/S 761 mmHg 86%
    10:00 -1°C° 0 mm 3 m/S 761 mmHg 85%
    11:00 -1°C° 0 mm 3 m/S 761 mmHg 82%
    12:00 -1°C° 0 mm 3 m/S 761 mmHg 79%
    13:00 0°C° 0 mm 3 m/S 761 mmHg 77%
    14:00 -1°C° 0 mm 3 m/S 761 mmHg 79%
    15:00 -1°C° 0 mm 2 m/S 762 mmHg 82%
    16:00 -2°C° 0 mm 2 m/S 762 mmHg 84%
    17:00 -2°C° 0 mm 2 m/S 762 mmHg 86%
    18:00 -2°C° 0 mm 2 m/S 762 mmHg 88%
    19:00 -2°C° 0 mm 2 m/S 762 mmHg 90%
    20:00 -2°C° 0 mm 2 m/S 762 mmHg 90%
    21:00 -2°C° 0 mm 2 m/S 762 mmHg 91%
    22:00 -2°C° 0 mm 2 m/S 762 mmHg 92%
    23:00 -3°C° 0 mm 2 m/S 762 mmHg 92%

    16 Dezember, Sonntag

    Zeit Temperatur Niederschläge Wind Luftdruck Luftfeuchtigkeit
    00:00 -3°C° 0 mm 2 m/S 762 mmHg 92%
    01:00 -3°C° 0 mm 2 m/S 763 mmHg 92%
    02:00 -3°C° 0 mm 2 m/S 762 mmHg 92%
    03:00 -3°C° 0 mm 2 m/S 762 mmHg 92%
    04:00 -3°C° 0 mm 2 m/S 762 mmHg 93%
    05:00 -3°C° 0 mm 2 m/S 763 mmHg 93%
    06:00 -3°C° 0 mm 2 m/S 763 mmHg 93%
    07:00 -3°C° 0 mm 2 m/S 763 mmHg 93%
    08:00 -3°C° 0 mm 2 m/S 763 mmHg 91%
    09:00 -3°C° 0 mm 2 m/S 763 mmHg 89%
    10:00 -3°C° 0 mm 2 m/S 762 mmHg 87%
    11:00 -2°C° 0 mm 2 m/S 762 mmHg 85%
    12:00 0°C° 0 mm 1 m/S 762 mmHg 83%
    13:00 +1°C° 0 mm 1 m/S 762 mmHg 80%
    14:00 -2°C° 0 mm 2 m/S 762 mmHg 82%
    15:00 -2°C° 0 mm 2 m/S 762 mmHg 84%
    16:00 -4°C° 0 mm 3 m/S 761 mmHg 86%
    17:00 -4°C° 0 mm 3 m/S 761 mmHg 86%
    18:00 -4°C° 0 mm 3 m/S 761 mmHg 86%
    19:00 -4°C° 0 mm 3 m/S 761 mmHg 86%
    20:00 -4°C° 0 mm 3 m/S 761 mmHg 86%
    21:00 -4°C° 0 mm 4 m/S 760 mmHg 85%
    22:00 -4°C° 0 mm 4 m/S 760 mmHg 85%
    23:00 -4°C° 0 mm 4 m/S 760 mmHg 85%
    Mehr zeigen